Time,TemperatureF,DewpointF,PressureIn,WindDirection,WindDirectionDegrees,WindSpeedMPH,WindSpeedGustMPH,Humidity,HourlyPrecipIn,Conditions,Clouds,dailyrainin,SoftwareType,DateUTC
2013-09-22 00:13:00,65.0,53.0,29.54,NNW,333,0.0,0.0,66,0.00,,,0.00,,2013-09-22 05:13:00,
2013-09-22 00:23:00,64.0,53.0,29.54,NNW,333,0.0,0.0,67,0.00,,,0.00,,2013-09-22 05:23:00,
2013-09-22 00:43:00,64.0,53.0,29.54,NNW,333,0.0,0.0,68,0.00,,,0.00,,2013-09-22 05:43:00,
2013-09-22 00:53:00,63.0,53.0,29.54,NNW,333,0.0,0.0,70,0.00,,,0.00,,2013-09-22 05:53:00,
2013-09-22 01:12:00,63.0,53.0,29.54,NNW,333,0.0,0.0,71,0.00,,,0.00,,2013-09-22 06:12:00,
2013-09-22 01:22:00,62.0,53.0,29.54,NNW,333,0.0,0.0,73,0.00,,,0.00,,2013-09-22 06:22:00,
2013-09-22 01:52:00,61.0,54.0,29.54,NNW,333,0.0,0.0,77,0.00,,,0.00,,2013-09-22 06:52:00,
2013-09-22 02:11:00,61.0,54.0,29.54,NNW,333,0.0,0.0,79,0.00,,,0.00,,2013-09-22 07:11:00,
2013-09-22 02:21:00,61.0,54.0,29.54,NNW,333,0.0,0.0,78,0.00,,,0.00,,2013-09-22 07:21:00,
2013-09-22 02:42:00,60.0,54.0,29.54,NNW,333,0.0,0.0,80,0.00,,,0.00,,2013-09-22 07:42:00,
2013-09-22 02:52:00,60.0,54.0,29.54,NNW,333,0.0,0.0,81,0.00,,,0.00,,2013-09-22 07:52:00,
2013-09-22 03:12:00,60.0,54.0,29.54,NNW,333,0.0,0.0,82,0.00,,,0.00,,2013-09-22 08:12:00,
2013-09-22 03:22:00,60.0,54.0,29.54,NNW,333,0.0,0.0,82,0.00,,,0.00,,2013-09-22 08:22:00,
2013-09-22 03:52:00,59.0,54.0,29.54,NNW,333,0.0,0.0,84,0.00,,,0.00,,2013-09-22 08:52:00,
2013-09-22 04:11:00,59.0,54.0,29.54,NNW,333,0.0,0.0,85,0.00,,,0.00,,2013-09-22 09:11:00,
2013-09-22 04:22:00,59.0,55.0,29.53,NNW,333,0.0,0.0,86,0.00,,,0.00,,2013-09-22 09:22:00,
2013-09-22 04:43:00,58.0,54.0,29.53,NNW,333,0.0,0.0,86,0.00,,,0.00,,2013-09-22 09:43:00,
2013-09-22 04:54:00,58.0,54.0,29.54,NNW,333,0.0,0.0,86,0.00,,,0.00,,2013-09-22 09:54:00,
2013-09-22 05:12:00,58.0,54.0,29.54,NNW,333,0.0,0.0,86,0.00,,,0.00,,2013-09-22 10:12:00,
2013-09-22 05:23:00,58.0,54.0,29.54,NNW,333,0.0,0.0,86,0.00,,,0.00,,2013-09-22 10:23:00,
2013-09-22 05:44:00,58.0,54.0,29.54,NNW,333,0.0,0.0,86,0.00,,,0.00,,2013-09-22 10:44:00,
2013-09-22 05:53:00,58.0,54.0,29.54,NNW,333,0.0,0.0,86,0.00,,,0.00,,2013-09-22 10:53:00,
2013-09-22 06:12:00,58.0,54.0,29.54,NNW,333,0.0,0.0,87,0.00,,,0.00,,2013-09-22 11:12:00,
2013-09-22 06:22:00,58.0,54.0,29.54,NNW,333,0.0,0.0,87,0.00,,,0.00,,2013-09-22 11:22:00,
2013-09-22 06:42:00,57.0,53.0,29.54,NNW,333,0.0,0.0,87,0.00,,,0.00,,2013-09-22 11:42:00,
2013-09-22 06:52:00,57.0,53.0,29.54,NNW,333,0.0,0.0,87,0.00,,,0.00,,2013-09-22 11:52:00,
2013-09-22 07:12:00,57.0,53.0,29.55,NW,324,0.0,2.0,88,0.00,,,0.00,,2013-09-22 12:12:00,
2013-09-22 07:22:00,58.0,55.0,29.55,NW,309,0.0,1.0,90,0.00,,,0.00,,2013-09-22 12:22:00,
2013-09-22 07:42:00,58.0,55.0,29.56,NW,309,0.0,1.0,90,0.00,,,0.00,,2013-09-22 12:42:00,
2013-09-22 07:52:00,58.0,55.0,29.56,NW,309,0.0,0.0,89,0.00,,,0.00,,2013-09-22 12:52:00,
2013-09-22 08:12:00,57.0,54.0,29.56,NW,309,0.0,0.0,89,0.00,,,0.00,,2013-09-22 13:12:00,
2013-09-22 08:22:00,57.0,54.0,29.56,NW,309,0.0,0.0,89,0.00,,,0.00,,2013-09-22 13:22:00,
2013-09-22 08:42:00,58.0,55.0,29.57,NW,309,0.0,0.0,90,0.00,,,0.00,,2013-09-22 13:42:00,
2013-09-22 08:52:00,58.0,55.0,29.57,NW,309,0.0,0.0,90,0.00,,,0.00,,2013-09-22 13:52:00,
2013-09-22 09:11:00,65.0,57.0,29.57,NNW,347,0.0,2.0,75,0.00,,,0.00,,2013-09-22 14:11:00,
2013-09-22 09:22:00,66.0,57.0,29.58,ENE,63,2.0,7.0,72,0.00,,,0.00,,2013-09-22 14:22:00,
2013-09-22 09:42:00,67.0,57.0,29.59,East,80,2.0,7.0,71,0.00,,,0.00,,2013-09-22 14:42:00,
2013-09-22 09:52:00,68.0,57.0,29.59,East,89,2.0,6.0,68,0.00,,,0.00,,2013-09-22 14:52:00,
2013-09-22 10:12:00,69.0,57.0,29.59,ESE,113,0.0,5.0,65,0.00,,,0.00,,2013-09-22 15:12:00,
2013-09-22 10:23:00,70.0,57.0,29.60,ESE,111,1.0,7.0,63,0.00,,,0.00,,2013-09-22 15:23:00,
2013-09-22 10:44:00,71.0,58.0,29.60,East,101,0.0,6.0,63,0.00,,,0.00,,2013-09-22 15:44:00,
2013-09-22 10:55:00,72.0,57.0,29.60,SE,134,2.0,7.0,59,0.00,,,0.00,,2013-09-22 15:55:00,
2013-09-22 11:13:00,73.0,57.0,29.60,ESE,123,3.0,7.0,57,0.00,,,0.00,,2013-09-22 16:13:00,
2013-09-22 11:24:00,74.0,57.0,29.60,ENE,67,0.0,7.0,55,0.00,,,0.00,,2013-09-22 16:24:00,
2013-09-22 11:43:00,75.0,57.0,29.60,East,96,0.0,9.0,53,0.00,,,0.00,,2013-09-22 16:43:00,
2013-09-22 11:54:00,76.0,57.0,29.59,ESE,104,2.0,6.0,52,0.00,,,0.00,,2013-09-22 16:54:00,
2013-09-22 12:12:00,77.0,57.0,29.59,ESE,120,0.0,8.0,51,0.00,,,0.00,,2013-09-22 17:12:00,
2013-09-22 12:23:00,78.0,57.0,29.59,ESE,123,0.0,7.0,49,0.00,,,0.00,,2013-09-22 17:23:00,
2013-09-22 12:43:00,78.0,55.0,29.58,SSE,154,3.0,8.0,45,0.00,,,0.00,,2013-09-22 17:43:00,
2013-09-22 12:53:00,78.0,55.0,29.57,ESE,108,1.0,6.0,45,0.00,,,0.00,,2013-09-22 17:53:00,
2013-09-22 13:13:00,79.0,56.0,29.57,ESE,123,4.0,8.0,46,0.00,,,0.00,,2013-09-22 18:13:00,
2013-09-22 13:22:00,80.0,56.0,29.56,SSE,152,2.0,7.0,44,0.00,,,0.00,,2013-09-22 18:22:00,
2013-09-22 13:42:00,80.0,55.0,29.56,ESE,107,4.0,8.0,43,0.00,,,0.00,,2013-09-22 18:42:00,
2013-09-22 13:52:00,81.0,55.0,29.55,ENE,75,3.0,7.0,41,0.00,,,0.00,,2013-09-22 18:52:00,
2013-09-22 14:11:00,81.0,52.0,29.54,ESE,105,3.0,9.0,37,0.00,,,0.00,,2013-09-22 19:11:00,
2013-09-22 14:22:00,82.0,53.0,29.54,ENE,60,1.0,7.0,37,0.00,,,0.00,,2013-09-22 19:22:00,
2013-09-22 14:52:00,82.0,55.0,29.52,NNE,14,3.0,12.0,40,0.00,,,0.00,,2013-09-22 19:52:00,
2013-09-22 15:12:00,82.0,53.0,29.52,NNW,328,3.0,10.0,37,0.00,,,0.00,,2013-09-22 20:12:00,
2013-09-22 15:22:00,83.0,55.0,29.51,ENE,61,2.0,7.0,38,0.00,,,0.00,,2013-09-22 20:22:00,
2013-09-22 15:42:00,83.0,56.0,29.50,WNW,294,0.0,6.0,40,0.00,,,0.00,,2013-09-22 20:42:00,
2013-09-22 15:52:00,83.0,53.0,29.49,ESE,105,1.0,6.0,36,0.00,,,0.00,,2013-09-22 20:52:00,
2013-09-22 16:12:00,84.0,54.0,29.49,NNE,13,1.0,8.0,36,0.00,,,0.00,,2013-09-22 21:12:00,
2013-09-22 16:23:00,83.0,52.0,29.48,NNE,12,3.0,10.0,35,0.00,,,0.00,,2013-09-22 21:23:00,
2013-09-22 16:44:00,83.0,53.0,29.47,East,86,1.0,6.0,36,0.00,,,0.00,,2013-09-22 21:44:00,
2013-09-22 16:54:00,83.0,52.0,29.47,ENE,62,1.0,6.0,34,0.00,,,0.00,,2013-09-22 21:54:00,
2013-09-22 17:14:00,83.0,53.0,29.47,ESE,110,1.0,5.0,36,0.00,,,0.00,,2013-09-22 22:14:00,
2013-09-22 17:24:00,83.0,52.0,29.47,SE,125,0.0,7.0,34,0.00,,,0.00,,2013-09-22 22:24:00,
2013-09-22 17:53:00,82.0,52.0,29.46,NE,50,2.0,9.0,36,0.00,,,0.00,,2013-09-22 22:53:00,
2013-09-22 18:12:00,82.0,54.0,29.46,ENE,64,1.0,6.0,38,0.00,,,0.00,,2013-09-22 23:12:00,
2013-09-22 18:22:00,81.0,52.0,29.46,ENE,69,3.0,7.0,37,0.00,,,0.00,,2013-09-22 23:22:00,
2013-09-22 18:43:00,80.0,52.0,29.46,ESE,119,1.0,5.0,38,0.00,,,0.00,,2013-09-22 23:43:00,
2013-09-22 18:52:00,80.0,52.0,29.46,East,98,2.0,7.0,38,0.00,,,0.00,,2013-09-22 23:52:00,
2013-09-22 19:12:00,79.0,51.0,29.46,ESE,103,2.0,6.0,38,0.00,,,0.00,,2013-09-23 00:12:00,
2013-09-22 19:23:00,79.0,52.0,29.46,East,95,0.0,6.0,39,0.00,,,0.00,,2013-09-23 00:23:00,
2013-09-22 19:42:00,77.0,51.0,29.46,East,93,1.0,3.0,41,0.00,,,0.00,,2013-09-23 00:42:00,
2013-09-22 19:53:00,76.0,52.0,29.46,East,93,0.0,2.0,43,0.00,,,0.00,,2013-09-23 00:53:00,
2013-09-22 20:12:00,75.0,52.0,29.46,East,94,0.0,2.0,45,0.00,,,0.00,,2013-09-23 01:12:00,
2013-09-22 20:22:00,74.0,52.0,29.46,East,95,0.0,1.0,47,0.00,,,0.00,,2013-09-23 01:22:00,
2013-09-22 20:43:00,73.0,53.0,29.46,East,95,0.0,1.0,49,0.00,,,0.00,,2013-09-23 01:43:00,
2013-09-22 20:52:00,72.0,53.0,29.47,East,95,0.0,1.0,52,0.00,,,0.00,,2013-09-23 01:52:00,
2013-09-22 21:11:00,71.0,54.0,29.47,East,95,0.0,1.0,55,0.00,,,0.00,,2013-09-23 02:11:00,
2013-09-22 21:22:00,71.0,54.0,29.48,East,95,0.0,0.0,56,0.00,,,0.00,,2013-09-23 02:22:00,
2013-09-22 21:42:00,71.0,55.0,29.48,East,95,0.0,1.0,57,0.00,,,0.00,,2013-09-23 02:42:00,
2013-09-22 21:52:00,70.0,55.0,29.48,East,95,0.0,1.0,58,0.00,,,0.00,,2013-09-23 02:52:00,
2013-09-22 22:12:00,70.0,55.0,29.48,East,95,0.0,0.0,60,0.00,,,0.00,,2013-09-23 03:12:00,
2013-09-22 22:22:00,69.0,55.0,29.48,East,95,0.0,0.0,61,0.00,,,0.00,,2013-09-23 03:22:00,
2013-09-22 22:44:00,69.0,55.0,29.48,East,95,0.0,1.0,62,0.00,,,0.00,,2013-09-23 03:44:00,
2013-09-22 22:54:00,68.0,55.0,29.49,East,95,0.0,0.0,63,0.00,,,0.00,,2013-09-23 03:54:00,
2013-09-22 23:14:00,67.0,55.0,29.49,East,95,0.0,0.0,66,0.00,,,0.00,,2013-09-23 04:14:00,
2013-09-22 23:24:00,67.0,56.0,29.49,East,95,0.0,1.0,67,0.00,,,0.00,,2013-09-23 04:24:00,
2013-09-22 23:43:00,66.0,55.0,29.49,East,95,0.0,0.0,68,0.00,,,0.00,,2013-09-23 04:43:00,
2013-09-22 23:54:00,66.0,55.0,29.49,East,95,0.0,1.0,68,0.00,,,0.00,,2013-09-23 04:54:00,